Regional Weather Roundup
Issued by NWS

Home | Current Version | Previous Version | Text Only | Print | Product List | Glossary On
Versions: 1 2 3 4 5 6 7 8 9 10 11 12 13 14 15 16 17 18 19 20 21 22 23 24 25 26 27 28 29 30 31 32 33 34 35 36 37 38 39 40 41 42 43 44 45 46 47 48 49 50
000
ASUS46 KSTO 221609
RWRCA

NORTHERN AND CENTRAL CA REGIONAL WEATHER ROUNDUP
NATIONAL WEATHER SERVICE SACRAMENTO CA
800 AM PDT TUE MAY 22 2018

NOTE: FAIR INDICATES FEW OR NO CLOUDS BELOW 12,000 FEET WITH NO
SIGNIFICANT WEATHER AND/OR OBSTRUCTIONS TO VISIBILITY.

CAZ001-003-221600-
NORTHWEST AREA

CITY           SKY/WX    TMP DP  RH WIND       PRES   REMARKS
CRESCENT CITY  CLOUDY    53  50  89 NE3       29.92R
UKIAH          SUNNY     56  48  74 SE3       29.86R
$$

CAZ006-505>513-221600-
BAY AREA

CITY           SKY/WX    TMP DP  RH WIND       PRES   REMARKS
SANTA ROSA     CLOUDY    52  50  93 SW5       29.87R FOG
SAN RAFAEL     N/A       52  MM  MM MISG
NAPA           CLOUDY    55  50  83 S14       29.89R
CONCORD        CLOUDY    57  50  77 S18       29.89R
OAKLAND CITY   N/A      MM  MM  MM MISG
OAKLAND        CLOUDY    53  51  93 SW10      29.92R FOG
SAN FRAN CITY  N/A       52  MM  94 MISG
SAN FRAN ARPT  CLOUDY    55  49  80 W9        29.92R
LIVERMORE      CLOUDY    55  52  89 SW8       29.90R
HAYWARD        CLOUDY    55  49  80 W8        29.92R
REDWOOD CITY   N/A       55  MM  82 MISG
MOFFETT ARPT   CLOUDY    57  49  74 W8        29.93R
SAN JOSE ARPT  CLOUDY    58  49  72 CALM      29.92R
$$
CAZ034-037-514>518-221600-
CENTRAL COAST

CITY           SKY/WX    TMP DP  RH WIND       PRES   REMARKS
WATSONVILLE    CLOUDY    53  51  93 CALM      29.94R
SALINAS        CLOUDY    54  51  90 S3        29.94R FOG
MONTEREY       CLOUDY    53  51  93 SW5       29.95R FOG
SAN LUIS OBISP CLOUDY    54  50  86 S5        29.95R
SANTA MARIA    CLOUDY    53  51  93 NW3       29.96R
$$
CAZ015-016-221600-
NORTHERN SACRAMENTO VALLEY

CITY           SKY/WX    TMP DP  RH WIND       PRES   REMARKS
REDDING        SUNNY     67  57  70 SE5       29.83R
RED BLUFF      SUNNY     65  53  65 S8        29.85R
OROVILLE       SUNNY     61  52  72 SE9       29.87R
$$
CAZ016>018-221600-
SOUTHERN SACRAMENTO VALLEY

CITY           SKY/WX    TMP DP  RH WIND       PRES   REMARKS
AUBURN         SUNNY     61  54  77 CALM      29.87R
BEALE AFB      SUNNY     60  51  73 S8        29.85R
LINCOLN        FAIR      59  50  72 S6        29.86R
MARYSVILLE     SUNNY     58  52  80 SE7       29.87R
SAC INTL ARPT  MOSUNNY   58  51  78 S13       29.85R
MATHER AIRPORT SUNNY     57  52  82 S6        29.86R
DOWNTOWN SAC   N/A       60  MM  MM MISG
SAC EXEC ARPT  SUNNY     57  52  83 SW10      29.86R
VACAVILLE      SUNNY     58  56  93 SW12      29.87R
TRAVIS AFB     MOSUNNY   56  50  79 W17       29.85R
$$
CAZ019>021-221600-
SAN JOAQUIN VALLEY

CITY           SKY/WX    TMP DP  RH WIND       PRES   REMARKS
STOCKTON       SUNNY     62  51  67 W13       29.87R
MODESTO        SUNNY     59  50  72 N6        29.86R
MERCED         SUNNY     60  50  69 N7        29.86R
LEMOORE        MOSUNNY   63  50  62 NW9       29.86R
FRESNO         MOSUNNY   65  52  62 N3        29.86R
HANFORD        SUNNY     62  52  69 CALM      29.86R
PORTERVILLE    MOSUNNY   63  49  60 S6        29.88R
BAKERSFIELD    SUNNY     70  47  43 CALM      29.86S
$$
CAZ011-012-071-221600-
NORTHERN MOUNTAINS

CITY           SKY/WX    TMP DP  RH WIND       PRES   REMARKS
YREKA          SUNNY     58  47  66 NE3       29.94S
MOUNT SHASTA   SUNNY     62  48  60 CALM      29.94R
ALTURAS        SUNNY     48  45  89 CALM      29.98R
$$
CAZ011-012-071-221600-
SIERRA NEVADA MTNS

CITY           SKY/WX    TMP DP  RH WIND       PRES   REMARKS
BLUE CANYON    SUNNY     57  44  62 VRB3      29.98R
TRUCKEE        FOG       43  43 100 CALM      30.03R VSB 1/4
TAHOE VLY ARPT MOSUNNY   48  46  93 S5        30.01R
MAMMOTH LAKES  CLOUDY    46  42  83 NW5       30.04S
$$




USA.gov is the U.S. government's official web portal to all federal, state and local government web resources and services.